CZ-6A DEB

Satellite information

Favourite Embed

Satellite Type and Status

DEBRISIN ORBIT

Key statistics

Satellite CZ-6A DEB at a glance.

Uptime

1030

Days in orbit

Revolutions

≈ 14.7

Per day

Orbit

SSO

Sun Synchronous Orbit

Inclination

98.5

Latest

Satellite identification and parameters

Extended collection of information and parameters for CZ-6A DEB.

Object identification

Identified? True

Debris? True

Object name: CZ-6A DEB

International designator: 2022-151ABP

Object number (NORAD): 56247

Object ID (CCSDS): 56247

Country: PEOPLES REPUBLIC OF CHINA (PRC)

Current information (Y/N): Y

RCS size: SMALL

Orbital parameters

Period: 98.121 minutes

Inclination: 98.4689 deg

SMA: 7046.947 km

Apoapsis: 757.012 km

Periapsis: 580.612 km

RAAN: 287.5218 deg

Eccentricy: 0.01251608

Argument of periapsis: 22.5625 deg

Mean anomaly: 338.1015 deg

Mean motion: 14.67578173 rev/day

Mean motion (dot): 0.00012374 rev/day2

B* drag term: 0.001942982 1/REarth

Two-line elements (TLE)

Creation date: Sept. 5, 2025, 7:38 p.m.

Reference frame: TEME

Reference center: EARTH

Epoch: Sept. 5, 2025, 2:14 p.m. UTC

TLE line 0: 0 CZ-6A DEB

TLE line 1: 1 56247U 22151ABP 25248.59332826 .00012374 00000-0 19430-2 0 9990

TLE line 2: 2 56247 98.4689 287.5218 0125161 22.5625 338.1015 14.67578173135976

Live tracking on map

Real-time ground track for satellite CZ-6A DEB.

In-orbit conjunctions

A list of the most updated potential collisions computed for object CZ-6A DEB.

Target Orbit TCA Probability of collision Miss distance Type
FENGYUN 1C DEB SSO 2024-11-13 06:11:50 0.0001887793 544.0 (m) DEBRIS
COSMOS 2251 DEB LEO 2024-09-27 11:09:05 0.0001035572 825.0 (m) DEBRIS

Associated space launch

Chinese satellite reported for atmospheric/ocean/environmental/spatial parameter research purposes, details TBD.

CZ-6A DEB was lifted into orbit during the mission ‘Long March 6A | Yunhai 3’, on board a Long March 6A space rocket.

The launch took place on Nov. 11, 2022, 10:52 p.m. from Launch Complex 9A.

For more information about the launch, click the button.

Launch to space Long March 6A | Yunhai 3
Long March 6A | Yunhai 3

Agency: N/A

Status: Launch Successful

Launch date: Nov. 11, 2022, 10:52 p.m. UTC

Rocket: Long March 6A

Launch pad: Launch Complex 9A

Location: Taiyuan Satellite Launch Center, People's Republic of China

...

Latest news about this satellite

There are no fresh news available about this satellite. Check back as we update our databases every day.


Newsletter sign-up

Weekly statistics, charts and insights to help you stay on top of the space industry.